Location: Unspecified
(58.9933°N, 5.6375°E)
Time: 21:38:29
(UTC+01:00)

Cosmos 2058 - Pass Details

Date: 24 January 2018
Orbit: 563 x 585 km, 82.5° (Epoch: 23 February)

Event Time Altitude Azimuth Distance (km) Brightness Sun altitude
Exits shadow 05:49:27 83° 63° (ENE) 598 2.9 -24.1°
Maximum altitude 05:49:29 83° 75° (ENE) 598 2.9 -24.1°
Drops below altitude 10° 05:53:42 10° 165° (SSE) 1,900 5.7 -23.5°
Sets 05:55:52 0° 166° (SSE) 2,792 6.6 -23.3°
